IU8UOQ-3 Weather Reports


Display with metric or nautical units.
time (UTC)temp
F
wind
direction
speed
MPH
gust
MPH
rain 1hr
in
rain 24hr
in
rain mn
in
humidity
%
barometer
mb
20260902231035 92 0.0 0.0 0.00 0.00 0.00 46 1067.8
20260902225030 92 0.0 0.0 0.00 0.00 0.00 46 1067.9
20260902223025 92 0.0 0.0 0.00 0.00 0.00 46 1067.8
20260902221020 92 0.0 0.0 0.00 0.00 0.00 46 1068.0
20260902215016 92 0.0 0.0 0.00 0.00 0.00 46 1068.0
20260902213011 92 0.0 0.0 0.00 0.00 0.00 46 1068.0
20260902180911 93 0.0 0.0 0.00 0.00 0.00 46 1067.6
20260902174906 93 0.0 0.0 0.00 0.00 0.00 46 1067.4
20260902172901 93 0.0 0.0 0.00 0.00 0.00 46 1067.2
20260902170856 93 0.0 0.0 0.00 0.00 0.00 45 1067.2
20260902164852 94 0.0 0.0 0.00 0.00 0.00 45 1067.4
20260902160842 91 0.0 0.0 0.00 0.00 0.00 49 1067.5
20260902154837 95 0.0 0.0 0.00 0.00 0.00 43 1067.5
20260902152832 90 0.0 0.0 0.00 0.00 0.00 47 1067.4
20260902151856 90 0.0 0.0 0.00 0.00 0.00 46 1067.5
20260902145407 90 0.0 0.0 0.00 0.00 0.00 52 1067.6
20260902145151 90 0.0 0.0 0.00 0.00 0.00 51 1067.6
20260902145051 90 0.0 0.0 0.00 0.00 0.00 52 1067.6
20260902144830 90 0.0 0.0 0.00 0.00 0.00 52 1067.6
20260902144736 90 0.0 0.0 0.00 0.00 0.00 53 1067.6
20260902144709 90 0.0 0.0 0.00 0.00 0.00 54 1067.5
20260902144539 90 0.0 0.0 0.00 0.00 0.00 54 1067.5
20260902144438 90 0.0 0.0 0.00 0.00 0.00 54 1067.5
20260902144306 90 0.0 0.0 0.00 0.00 0.00 54 1067.6
20260902144224 90 0.0 0.0 0.00 0.00 0.00 54 1067.6
20260902143639 89 0.0 0.0 0.00 0.00 0.00 54 1067.6
20260902143546 89 0.0 0.0 0.00 0.00 0.00 55 1067.6
20260902143413 89 0.0 0.0 0.00 0.00 0.00 56 1067.5
20260902143312 89 0.0 0.0 0.00 0.00 0.00 56 1067.6
20260902143153 89 0.0 0.0 0.00 0.00 0.00 55 1067.6
20260902143104 89 0.0 0.0 0.00 0.00 0.00 55 1067.7
20260902143030 89 0.0 0.0 0.00 0.00 0.00 55 1067.6
20260902143021 89 0.0 0.0 0.00 0.00 0.00 55 1067.7
20260902142944 89 0.0 0.0 0.00 0.00 0.00 54 1067.7
20260902142800 89 0.0 0.0 0.00 0.00 0.00 55 1067.7
20260902142329 89 0.0 0.0 0.00 0.00 0.00 56 1067.8
20260902141825 88 0.0 0.0 0.00 0.00 0.00 57 1067.8
20260902140415 88 0.0 0.0 0.00 0.00 0.00 56 1067.8
20260902134412 88 0.0 0.0 0.00 0.00 0.00 56 1068.0
20260902132408 88 0.0 0.0 0.00 0.00 0.00 57 1068.0
20260902130404 88 0.0 0.0 0.00 0.00 0.00 57 1068.3
20260902124400 88 0.0 0.0 0.00 0.00 0.00 57 1068.3
20260902122357 88 0.0 0.0 0.00 0.00 0.00 57 1068.5
20260902120353 88 0.0 0.0 0.00 0.00 0.00 57 1068.7
20260902114350 88 0.0 0.0 0.00 0.00 0.00 57 1068.7
20260902112346 88 0.0 0.0 0.00 0.00 0.00 58 1068.9
20260902110342 88 0.0 0.0 0.00 0.00 0.00 58 1069.0
20260902104339 87 0.0 0.0 0.00 0.00 0.00 58 1069.2
20260902102335 87 0.0 0.0 0.00 0.00 0.00 58 1069.0
20260902100331 87 0.0 0.0 0.00 0.00 0.00 58 1069.2
20260902094328 87 0.0 0.0 0.00 0.00 0.00 58 1069.2
20260902092324 87 0.0 0.0 0.00 0.00 0.00 58 1069.3
20260902090320 87 0.0 0.0 0.00 0.00 0.00 58 1069.1
20260902084317 87 0.0 0.0 0.00 0.00 0.00 58 1068.9
20260902082313 87 0.0 0.0 0.00 0.00 0.00 57 1068.9
20260902080309 87 0.0 0.0 0.00 0.00 0.00 57 1068.9
20260902074306 87 0.0 0.0 0.00 0.00 0.00 57 1068.3
20260902072308 87 0.0 0.0 0.00 0.00 0.00 56 1068.3
20260902070258 87 0.0 0.0 0.00 0.00 0.00 56 1068.1
20260902064255 87 0.0 0.0 0.00 0.00 0.00 56 1068.0
20260902062251 87 0.0 0.0 0.00 0.00 0.00 56 1068.1
20260902060247 87 0.0 0.0 0.00 0.00 0.00 54 1068.1
20260902054244 87 0.0 0.0 0.00 0.00 0.00 54 1068.2
20260902052240 87 0.0 0.0 0.00 0.00 0.00 54 1068.2
20260902050236 87 0.0 0.0 0.00 0.00 0.00 54 1068.2
20260902044233 87 0.0 0.0 0.00 0.00 0.00 54 1068.2
20260902042229 87 0.0 0.0 0.00 0.00 0.00 53 1068.2
20260902040225 88 0.0 0.0 0.00 0.00 0.00 53 1068.1
20260902034222 88 0.0 0.0 0.00 0.00 0.00 53 1068.1
20260902032218 88 0.0 0.0 0.00 0.00 0.00 53 1068.1
20260902030214 88 0.0 0.0 0.00 0.00 0.00 53 1068.1
20260902024211 88 0.0 0.0 0.00 0.00 0.00 53 1068.3
20260902022207 88 0.0 0.0 0.00 0.00 0.00 53 1068.3
20260902020203 88 0.0 0.0 0.00 0.00 0.00 53 1068.4
20260902014200 88 0.0 0.0 0.00 0.00 0.00 53 1068.2
20260902012156 88 0.0 0.0 0.00 0.00 0.00 53 1068.4
20260902010152 88 0.0 0.0 0.00 0.00 0.00 53 1068.4
20260902004149 88 0.0 0.0 0.00 0.00 0.00 53 1068.3
20260902002145 88 0.0 0.0 0.00 0.00 0.00 53 1068.2
20260902000141 88 0.0 0.0 0.00 0.00 0.00 53 1068.4
20260901234138 88 0.0 0.0 0.00 0.00 0.00 53 1068.4